User: anonymous   Login
Location: *
(10.4782°N, 67.2163°W)
Time: 07:16:03
(UTC+00:00)
Language:

MOS 1-B - Orbit

View from above orbital plane
View from above orbital plane
View from above satellite
View from above satellite

Ground track
Ground track

The orbit data is extracted from the following two-line orbital elements,

1 20478U 90013A   24202.89000789  .00000079  00000-0  91720-4 0  9994
2 20478  99.3210 248.6758 0004544 281.8484  78.2168 13.95805739674884
Epoch (UTC): 20 July 2024 21:21:36
Eccentricity: 0.0004544
inclination: 99.3210°
perigee height: 905 km
apogee height: 911 km
right ascension of ascending node: 248.6758°
argument of perigee: 281.8484°
revolutions per day: 13.95805739
mean anomaly at epoch: 78.2168°
orbit number at epoch: 67488

The dashed part of the orbit path shows where the satellite is in the earth's shadow,  

DLR